This demonstration page uses our WeatherBlox Daily Observations layout. Learn more.

Left ArrowRight Arrow

Hourly Observations for May 31, 2017

Temp ( °F °C ) Dew Point ( °F °C ) Humidity (%) Winds ( mph kmh ) Pressure ( in mb ) Visibility ( mi km ) Precip ( " mm )
12:15 am 00:15 Clear 55 13 39 4 55 55 NE 6 9 30.06 1018 10 16 0.00 0.00
12:35 am 00:35 Clear 55 13 37 3 51 51 NE 7 11 30.06 1018 10 16 0.00 0.00
12:55 am 00:55 Clear 54 12 39 4 58 58 NNE 10 17 30.06 1018 10 16 0.00 0.00
1:15 am 01:15 Clear 54 12 39 4 58 58 Calm 30.09 1019 10 16 0.00 0.00
1:35 am 01:35 Clear 57 14 39 4 51 51 Calm 30.06 1018 10 16 0.00 0.00
1:55 am 01:55 Mostly Clear 59 15 37 3 45 45 Calm 30.06 1018 10 16 0.00 0.00
2:15 am 02:15 Mostly Cloudy 57 14 37 3 48 48 Calm 30.06 1018 10 16 0.00 0.00
2:35 am 02:35 Cloudy 57 14 39 4 51 51 NE 5 7 30.06 1018 10 16 0.00 0.00
2:55 am 02:55 Mostly Cloudy 55 13 39 4 55 55 Calm 30.06 1018 10 16 0.00 0.00
3:15 am 03:15 Partly Cloudy 55 13 39 4 55 55 N 5 7 30.06 1018 10 16 0.00 0.00
3:35 am 03:35 Partly Cloudy 54 12 39 4 58 58 N 7 11 30.09 1019 10 16 0.00 0.00
3:55 am 03:55 Partly Cloudy 54 12 39 4 58 58 NNE 5 7 30.09 1019 10 16 0.00 0.00
4:15 am 04:15 Partly Cloudy 55 13 39 4 55 55 NNE 5 7 30.06 1018 10 16 0.00 0.00
4:35 am 04:35 Mostly Cloudy 55 13 41 5 59 59 NNE 5 7 30.06 1018 10 16 0.00 0.00
4:55 am 04:55 Mostly Cloudy 55 13 43 6 63 63 NNE 8 13 30.06 1018 10 16 0.00 0.00
5:15 am 05:15 Mostly Cloudy 55 13 39 4 55 55 ENE 6 9 30.06 1018 10 16 0.00 0.00
5:35 am 05:35 Cloudy 55 13 39 4 55 55 ENE 7 11 30.06 1018 10 16 0.00 0.00
5:55 am 05:55 Cloudy 55 13 41 5 59 59 NNE 8 13 30.06 1018 10 16 0.00 0.00
6:15 am 06:15 Cloudy 55 13 39 4 55 55 NE 6 9 30.06 1018 10 16 0.00 0.00
6:35 am 06:35 Mostly Cloudy 55 13 39 4 55 55 NNW 7 11 30.09 1019 10 16 0.00 0.00
6:55 am 06:55 Mostly Cloudy 57 14 43 6 59 59 SE 6 9 30.06 1018 10 16 0.00 0.00
7:15 am 07:15 Partly Cloudy 57 14 39 4 51 51 E 9 15 30.06 1018 10 16 0.00 0.00
7:35 am 07:35 Mostly Cloudy 59 15 39 4 48 48 ENE 8 13 30.09 1019 10 16 0.00 0.00
7:55 am 07:55 Mostly Cloudy 59 15 41 5 51 51 E 12 19 30.06 1018 10 16 0.00 0.00
8:15 am 08:15 Mostly Cloudy 61 16 41 5 48 48 E 10 17 30.06 1018 10 16 0.00 0.00
8:35 am 08:35 Partly Cloudy 61 16 41 5 48 48 E 10 17 30.09 1019 10 16 0.00 0.00
8:55 am 08:55 Partly Cloudy 63 17 43 6 49 49 E 9 15 30.06 1018 10 16 0.00 0.00
9:15 am 09:15 Mostly Cloudy 64 18 41 5 43 43 NE 7 11 30.06 1018 10 16 0.00 0.00
9:35 am 09:35 Cloudy 59 15 46 8 63 63 SE 14 22 30.06 1018 8 13 0.04 1.02
9:55 am 09:55 Partly Cloudy with Nearby Thunderstorms 63 17 48 9 59 59 E 15 24 30.03 1017 10 16 0.04 1.02
10:15 am 10:15 Sunny 66 19 45 7 46 46 ESE 13 20 30.03 1017 10 16 0.00 0.00
10:35 am 10:35 Sunny 70 21 45 7 40 40 E 13 20 30.00 1016 10 16 0.00 0.00
10:55 am 10:55 Sunny 72 22 43 6 36 36 ESE 12 19 30.00 1016 10 16 0.00 0.00
11:15 am 11:15 Sunny 72 22 43 6 36 36 E 12 19 30.00 1016 10 16 0.00 0.00
11:35 am 11:35 Mostly Sunny 73 23 43 6 33 33 ESE 9 15 30.00 1016 10 16 0.00 0.00
11:55 am 11:55 Sunny 75 24 45 7 34 34 E 14 22 30.00 1016 10 16 0.00 0.00
12:15 pm 12:15 Sunny 75 24 43 6 31 31 E 14 22 30.00 1016 10 16 0.00 0.00
12:35 pm 12:35 Mostly Cloudy 75 24 41 5 29 29 E 12 19 30.00 1016 10 16 0.00 0.00
12:55 pm 12:55 Cloudy with Nearby Thunderstorms 75 24 43 6 31 31 ESE 12 19 30.00 1016 10 16 0.00 0.00
1:15 pm 13:15 Cloudy with Thunderstorms 72 22 45 7 38 38 S 13 20 30.03 1017 9 14 0.01 0.25
1:35 pm 13:35 Cloudy with Thunderstorms 63 17 52 11 68 68 S 14 22 30.06 1018 10 16 0.06 1.52
1:55 pm 13:55 Cloudy with Nearby Thunderstorms 61 16 52 11 72 72 E 15 24 30.06 1018 10 16 0.10 2.54
2:15 pm 14:15 Mostly Sunny 64 18 55 13 73 73 ESE 8 13 30.03 1017 10 16 0.00 0.00
2:35 pm 14:35 Mostly Cloudy 64 18 52 11 64 64 ESE 7 11 30.03 1017 10 16 0.01 0.25
2:55 pm 14:55 Cloudy with Thunderstorms 64 18 54 12 68 68 E 6 9 30.03 1017 10 16 0.05 1.27
3:15 pm 15:15 Cloudy with Nearby Thunderstorms 68 20 54 12 60 60 ESE 8 13 30.03 1017 10 16 0.00 0.00
3:35 pm 15:35 Cloudy 70 21 50 10 50 50 E 13 20 30.00 1016 10 16 0.00 0.00
3:55 pm 15:55 Mostly Cloudy 70 21 50 10 50 50 ESE 10 17 30.00 1016 10 16 0.00 0.00
4:15 pm 16:15 Mostly Cloudy 70 21 48 9 46 46 E 8 13 30.00 1016 10 16 0.00 0.00
4:35 pm 16:35 Mostly Cloudy with Nearby Thunderstorms 72 22 50 10 47 47 ESE 9 15 30.00 1016 10 16 0.00 0.00
4:55 pm 16:55 Mostly Sunny 72 22 52 11 50 50 SE 10 17 29.97 1015 10 16 0.00 0.00
5:15 pm 17:15 Sunny 72 22 52 11 50 50 ESE 8 13 29.97 1015 10 16 0.00 0.00
5:35 pm 17:35 Sunny 72 22 50 10 47 47 ESE 13 20 29.97 1015 10 16 0.00 0.00
5:55 pm 17:55 Sunny 73 23 50 10 44 44 ESE 13 20 29.97 1015 10 16 0.00 0.00
6:15 pm 18:15 Sunny 73 23 50 10 44 44 ESE 10 17 29.94 1014 10 16 0.00 0.00
6:35 pm 18:35 Sunny 73 23 48 9 41 41 ESE 13 20 29.97 1015 10 16 0.00 0.00
6:55 pm 18:55 Sunny 72 22 48 9 44 44 E 12 19 29.97 1015 10 16 0.00 0.00
7:15 pm 19:15 Sunny 72 22 46 8 41 41 E 12 19 29.97 1015 10 16 0.00 0.00
7:35 pm 19:35 Sunny 72 22 46 8 41 41 ESE 13 20 29.97 1015 10 16 0.00 0.00
7:55 pm 19:55 Sunny 72 22 48 9 44 44 ESE 10 17 29.94 1014 10 16 0.00 0.00
8:15 pm 20:15 Sunny 68 20 46 8 46 46 E 10 17 29.94 1014 10 16 0.00 0.00
8:35 pm 20:35 Sunny 66 19 46 8 49 49 E 9 15 29.97 1015 10 16 0.00 0.00
8:55 pm 20:55 Sunny 66 19 46 8 49 49 E 9 15 29.97 1015 10 16 0.00 0.00
9:15 pm 21:15 Clear 64 18 46 8 52 52 E 9 15 29.97 1015 10 16 0.00 0.00
9:35 pm 21:35 Clear 63 17 46 8 56 56 E 9 15 29.97 1015 10 16 0.00 0.00
9:55 pm 21:55 Clear 63 17 46 8 56 56 ESE 8 13 29.97 1015 10 16 0.00 0.00
10:15 pm 22:15 Partly Cloudy 63 17 46 8 56 56 SE 8 13 30.00 1016 10 16 0.00 0.00
10:35 pm 22:35 Mostly Clear 63 17 46 8 56 56 ESE 7 11 30.00 1016 10 16 0.00 0.00
10:55 pm 22:55 Mostly Clear 63 17 46 8 56 56 ESE 8 13 30.00 1016 10 16 0.00 0.00
11:15 pm 23:15 Mostly Cloudy 64 18 45 7 49 49 SE 13 20 30.03 1017 10 16 0.00 0.00
11:35 pm 23:35 Mostly Cloudy 64 18 46 8 52 52 SE 10 17 30.00 1016 10 16 0.00 0.00
11:55 pm 23:55 Mostly Cloudy 64 18 45 7 49 49 E 10 17 30.00 1016 10 16 0.00 0.00

Powered by AerisWeather